{"data":{"norad_id":26715,"epoch":"2026-09-19T14:08:46.669920Z","epoch_age_seconds":90116,"freshness":"FRESH","line1":"1 26715U 01009A   26262.58942905  .00000110  00000+0  00000+0 0  9991","line2":"2 26715  11.6467  19.1549 0042747 179.4642 222.1082  1.00268153 33890","mean_motion":1.00268153,"eccentricity":0.0042747,"inclination_deg":11.6467,"raan_deg":19.1549,"arg_perigee_deg":179.4642,"mean_anomaly_deg":222.1082,"bstar":0,"rev_number":3389,"period_min":1436.148923577,"perigee_km":35607.367241104,"apogee_km":35967.859105637,"semimajor_km":42165.750173371,"source":"CELESTRAK","updated_at":"2026-09-20T09:00:35.118892Z"}}